Preview of NWS' New Version of Forecast
This preview is not operational and should not be used for support decisions.
Latest weather observations around

Oklahoma City, Will Rogers World Airport (KOKC)

Using English Units (Switch to International System of Units)
Date/ Time (CDT) Wind (mph) Vis. (mi) Weather Sky Cond. Temp (°F) Rel. Humidity Wind Chill (°F) Heat Index (°F) Pressure Precip. (in)
Air Dwpt 6 hour Altimeter (inHg) Sea level (inHg) 1 hr 3 hr 6 hr
Max Min
Sep 16 08:52 S 5 10 Partly Cloudy SCT250 75 70     84%   76 30.11 30.06      
Sep 16 07:52 S 3 8 Mostly Clear FEW250 70 68     93%     30.1 30.06      
Sep 16 06:52 SSE 5 10 Mostly Clear FEW250 69 67     93%     30.09 30.04      
Sep 16 05:52 S 5 10 Mostly Clear FEW250 69 67     93%     30.08 30.03      
Sep 16 04:52 S 3 10 Mostly Clear FEW250 69 68     96%     30.08 30.03      
Sep 16 03:52 SSE 6 10 Mostly Clear FEW250 70 67     90%     30.08 30.03      
Sep 16 02:52 SE 7 10 Mostly Clear FEW250 71 68     90%   72 30.08 30.03      
Sep 16 01:52 SE 6 10 Mostly Clear FEW250 71 69     93%   72 30.08 30.02      
Sep 16 00:52 S 5 10 Mostly Clear FEW250 73 69     87%   74 30.08 30.03      
Sep 15 23:52 SSE 6 10 Mostly Clear FEW250 75 69     82%   76 30.07 30.02      
Sep 15 22:52 Calm 10 Clear CLR 75 69     82%   76 30.08 30.03      
Sep 15 21:52 SE 5 10 Clear CLR 75 69     82%   76 30.07 30.02      
Sep 15 20:52 S 3 10 Mostly Clear FEW250 79 66     65%   80 30.05 30      
Sep 15 19:52 SSE 7 10 Mostly Clear FEW250 79 68     69%   80 30.04 30      
Sep 15 18:52 SSE 6 10 Mostly Clear FEW250 85 68     57%   88 30.04 30      
Sep 15 17:52 S 6 10 Mostly Clear FEW080 FEW250 90 66     45%   93 30.05 30      
Sep 15 16:52 S 6 10 Mostly Clear FEW080 FEW250 91 65     42%   93 30.05 30      
Sep 15 15:52 SSE 7 10 Partly Cloudy FEW050 FEW080 SCT250 91 65     42%   93 30.07 30.02      
Sep 15 14:52 S 6 10 Partly Cloudy FEW050 SCT250 89 67     48%   92 30.09 30.04      
Sep 15 13:52 SW 9 10 Mostly Clear FEW250 90 68     49%   94 30.11 30.06      
Sep 15 12:52 SSW 7 10 Mostly Clear FEW250 88 69     54%   92 30.12 30.08      
Sep 15 11:52 S 8 10 Mostly Clear FEW250 87 69     55%   91 30.14 30.09      
Sep 15 10:52 S 9 10 Clear CLR 83 70     65%   87 30.14 30.09      
Sep 15 09:52 S 9 10 Clear CLR 78 69     74%   79 30.14 30.09      
Sep 15 08:52 S 8 10 Clear CLR 74 68     82%   75 30.13 30.09      
Sep 15 07:52 SSE 6 9 Clear CLR 69 66     90%     30.12 30.08      
Sep 15 06:52 SSE 7 10 Mostly Clear FEW250 68 66     93%     30.12 30.07      
Sep 15 05:52 SSE 6 10 Mostly Clear FEW250 68 66     93%     30.11 30.06      
Sep 15 04:52 S 5 10 Partly Cloudy SCT250 69 66     90%     30.11 30.06      
Sep 15 03:52 SSE 7 10 Partly Cloudy SCT250 69 66     90%     30.11 30.06      
Sep 15 02:52 SSE 5 10 Partly Cloudy SCT250 70 67     90%     30.13 30.08      
Sep 15 01:52 SSE 6 10 Partly Cloudy SCT250 70 68     93%     30.13 30.08      
Sep 15 00:52 SSE 7 10 Mostly Cloudy BKN250 70 68     93%     30.13 30.08      
Sep 14 23:52 SSE 6 10 Mostly Cloudy BKN250 73 68     84%   74 30.13 30.08      
Sep 14 22:52 S 6 10 Partly Cloudy FEW200 SCT250 73 68     84%   74 30.12 30.08      
Sep 14 21:52 SSE 7 10 Partly Cloudy SCT250 75 69     82%   76 30.12 30.07      
Sep 14 20:52 SSE 8 10 Partly Cloudy SCT250 76 70     82%   77 30.1 30.06      
Sep 14 19:52 SSE 6 10 Mostly Cloudy BKN250 78 70     76%   79 30.09 30.05      
Sep 14 18:52 S 7 10 Partly Cloudy FEW060 SCT250 83 68     61%   86 30.09 30.05      
Sep 14 17:52 S 10 10 Mostly Cloudy FEW060 BKN250 87 67     51%   90 30.09 30.05      
Sep 14 16:52 SSW 10 10 Partly Cloudy FEW055 SCT250 89 66     47%   92 30.1 30.05      
Sep 14 15:52 SSW 13 10 Partly Cloudy SCT055 SCT250 89 67     48%   92 30.1 30.06      
Sep 14 14:52 SW 14 10 Partly Cloudy SCT045 SCT250 89 68     50%   93 30.13 30.08      
Sep 14 13:52 SW 10 10 Partly Cloudy SCT040 SCT250 88 70     55%   93 30.16 30.11      
Sep 14 12:52 S 11 10 Mostly Clear FEW250 87 70     57%   92 30.18 30.13      
Sep 14 11:52 S 13 10 Mostly Clear FEW085 FEW250 86 69     57%   90 30.19 30.14      
Sep 14 10:52 S 15 10 Mostly Clear FEW200 82 69     65%   85 30.2 30.16      
Sep 14 09:52 SSE 8 10 Mostly Clear FEW200 76 71     85%   77 30.21 30.17      
Sep 14 08:52 S 7 10 Mostly Clear FEW110 FEW250 71 70     96%   72 30.2 30.16      
Sep 14 07:52 S 3 8 Mostly Cloudy BKN110 BKN250 69 69     100%     30.19 30.16      
Sep 14 06:52 S 5 7 Partly Cloudy SCT110 SCT250 67 67     100%     30.18 30.14      
Sep 14 05:52 Calm 9 Mostly Clear FEW200 67 67     100%     30.18 30.14      
Sep 14 04:52 S 5 10 Partly Cloudy SCT200 68 68     100%     30.17 30.13      
Sep 14 03:52 SSE 5 9 Mostly Cloudy BKN180 69 69     100%     30.17 30.12      
Sep 14 02:52 SE 6 10 Partly Cloudy FEW130 SCT180 70 70     100%     30.18 30.14      
Sep 14 01:52 SE 8 10 Mostly Clear FEW090 FEW180 71 70     96%   72 30.18 30.14      
Sep 14 00:52 ESE 8 10 Mostly Clear FEW150 FEW250 71 70     96%   72 30.17 30.13      
Sep 13 23:52 E 7 10 Mostly Clear FEW140 FEW250 72 70     93%   73 30.18 30.14      
Sep 13 22:52 E 6 10 Mostly Clear FEW250 72 71     97%   73 30.18 30.14      
Sep 13 21:52 E 6 10 Partly Cloudy FEW200 SCT250 73 71     94%   74 30.18 30.14      
Sep 13 20:52 E 7 10 Clear   74 70     87%   75 30.17 30.14      
Sep 13 19:52 ESE 8 10 Mostly Cloudy FEW030 FEW200 BKN250 75 70     84%   76 30.16 30.13      
Sep 13 18:52 ESE 9 10 Mostly Cloudy FEW031 BKN250 79 70     74%   82 30.16 30.12      
Sep 13 17:52 ESE 7 10 Mostly Cloudy FEW035 FEW180 BKN250 82 69     65%   85 30.15 30.11      
Sep 13 16:52 SSE 5 10 Mostly Cloudy FEW034 SCT150 BKN250 81 69     67%   84 30.16 30.12      
Sep 13 15:52 Calm 10 Partly Cloudy FEW033 SCT150 SCT250 82 68     63%   85 30.18 30.14      
Sep 13 14:52 E 5 10 Mostly Cloudy SCT034 BKN150 BKN230 82 68     63%   85 30.2 30.16      
Sep 13 13:52 NE 6 10 Mostly Cloudy SCT030 BKN130 BKN200 81 69     67%   84 30.22 30.17      
Sep 13 12:52 NE 6 10 Mostly Cloudy FEW025 FEW110 BKN150 BKN180 78 67     69%   79 30.24 30.2     0
Sep 13 11:52 N 6 10 Cloudy SCT110 OVC180 75 68     79%   76 30.25 30.21      
Sep 13 10:52 N 7 10 Cloudy BKN130 OVC180 75 68     79%   76 30.25 30.2      
Sep 13 09:52 NNE 3 10 Cloudy BKN130 OVC180 71 68     90%   72 30.23 30.19   0  
May 14 11:52 S 21 10 Mostly Cloudy and Windy SCT200 BKN250 83 68     61%   86 29.92 29.87      
May 13 16:52 S 15 10 Mostly Cloudy BKN047 BKN250 84 67     57%   87 29.91 29.86      
May 12 18:52 S 16 10 Cloudy FEW050 FEW200 OVC250 82 64     55%   84 29.87 29.83      
May 12 04:52 S 21 10 Mostly Cloudy and Windy SCT150 BKN200 70 60     71%     29.83 29.78      
May 12 01:52 S 25 10 Cloudy and Windy SCT150 OVC200 73 59     61%   73 29.82 29.77      
May 11 20:52 S 15 10 Mostly Cloudy SCT200 BKN250 75 61     62%   75 29.78 29.74      
May 11 16:52   10 Mostly Clear FEW150 FEW250 83 60     46%   83 29.72 29.68      
May 11 15:52 S 30 10 Partly Cloudy and Breezy FEW150 SCT220 83 59     44%   83 29.73 29.69      
May 11 13:52   10 Partly Cloudy FEW150 SCT220 81 62     53%   82 29.78 29.73      
Jun 11 03:52 S 15 10 Clear CLR 72 64     76%   72 29.83 29.78      
Jun 11 00:52 SSE 17 10 Clear CLR 74 64     71%   74 29.84 29.79      
Jun 10 21:52 SSE 15 10 Clear CLR 78 66     67%   79 29.81 29.76      
Jun 10 14:52 S 18 10 Clear CLR 88 66     48%   90 29.81 29.76      
Jun 10 04:52 S 15 10 Clear CLR 68 64     87%     29.8 29.76      
Jun 09 15:52 SSE 14 10 Partly Cloudy SCT040 83 63     51%   84 29.85 29.81      
Jun 08 03:52 Calm 10 Partly Cloudy SCT250 61 52     72%     30.02 29.98      
Jun 07 21:52 E 5 10 Mostly Clear FEW250 70 51     51%     30.02 29.98      
Jun 07 10:52 ENE 10 10 Mostly Cloudy FEW120 SCT150 BKN250 76 49     39%   75 30.07 30.03